Location: Bentleyville
(41.4131°N, 81.4110°W)
Time: 05:56:01
(UTC+00:00)

Daily predictions for brighter satellites

Satellite Brightness Start Highest point End
(mag) Time Altitude Azimuth Time Altitude Azimuth Time Altitude Azimuth
Meteor 1-20 Rocket 4.5 00:01:09 10° NNW 00:06:34 65° W 00:11:56 10° S
Gbstr 26 Del rocket 3.8 00:02:50 10° SSW 00:05:34 35° S 00:05:34 35° S
Cosmos 1607 3.8 00:00:27 10° NNW 00:06:40 65° NE 00:08:21 47° ESE
Cosmos 1743 4.5 00:05:47 10° NNW 00:08:33 26° W 00:11:18 10° SSW
Cosmos 1354 Rocket 3.9 00:03:58 10° SSW 00:09:15 85° ESE 00:10:24 56° NNE
Spot 4 Rocket 4.2 00:05:31 10° S 00:10:34 71° WSW 00:15:42 10° NNW
Cosmos 1697 Rocket 2.5 00:06:49 10° SSW 00:12:24 80° ESE 00:13:24 61° NE
SL-19 R/B 4.2 00:09:50 10° SSE 00:15:04 79° WSW 00:20:32 10° NNW
BREEZE-M DEB (TANK) 3.6 00:06:35 10° SW 00:15:22 51° SE 00:15:42 50° SE
BREEZE-M DEB (TANK) 4.4 00:10:16 10° SSW 00:17:53 39° SSE 00:17:53 39° SSE
Okean 1-7 Rocket 4.4 00:16:03 10° NNW 00:20:17 48° W 00:24:28 10° SSW
Cosmos 1606 Rocket 4.4 00:17:45 10° SSW 00:21:58 48° W 00:23:22 35° NNW
BREEZE-M DEB (TANK) 3.9 00:18:36 10° NW 00:22:42 56° NNE 00:23:52 51° ENE
Cosmos 1655 Rocket 3.9 00:17:17 10° N 00:23:34 89° ENE 00:29:47 10° S
Resurs 1-3 4.5 00:21:16 10° S 00:25:25 47° W 00:29:35 10° NNW
Cosmos 724 4.2 00:21:49 10° NNW 00:27:52 87° WSW 00:28:38 69° SSE
NOSS 3-2 (C) 3.8 00:29:21 10° WSW 00:34:09 49° NW 00:34:58 45° NNW
Cosmos 2297 Rocket 3.3 00:42:15 10° NW 00:47:31 41° WSW 00:52:45 10° S
CZ-4C R/B 3.0 00:50:57 10° NW 00:58:20 84° WSW 00:59:10 74° S
Cosmos 1980 Rocket 4.0 01:07:06 10° SSW 01:09:03 22° SSW 01:09:03 22° SSW
Cosmos 2227 Rocket 4.5 01:32:58 10° NW 01:34:33 18° NW 01:34:33 18° NW
CZ-3 R/B 4.4 06:40:10 10° WSW 07:40:02 52° SSE 07:49:30 10° ESE
Cosmos 1697 Rocket 4.4 09:07:46 28° ESE 09:07:46 28° ESE 09:10:48 10° SE
USA 238 DEB 4.4 09:06:45 60° E 09:06:45 60° E 09:13:52 10° SE
USA 238 4.4 09:06:49 60° E 09:06:49 60° E 09:13:58 10° SE
Cosmos 2082 Rocket 4.1 09:34:03 10° SSE 09:38:40 27° ESE 09:43:18 10° NE
Cosmos 1634 Rocket 4.1 09:41:04 71° ESE 09:41:04 71° ESE 09:46:57 10° SSE
Cosmos 2098 Rocket 4.4 09:55:01 18° N 09:59:13 53° E 10:04:53 10° SSE
SL-8 R/B 4.3 10:01:43 52° ENE 10:01:43 52° ENE 10:05:39 10° ESE
Cosmos 2279 Rocket 4.1 09:56:49 17° N 10:01:46 73° E 10:08:00 10° SSE
Cosmos 990 Rocket 4.2 10:04:29 59° NNE 10:05:13 67° ENE 10:10:23 10° SSE
Cosmos 1980 Rocket 2.8 10:04:01 33° N 10:06:13 52° ENE 10:11:38 10° SE
CZ-3 Stage 3 4.5 10:03:34 34° SW 10:09:24 57° S 10:48:43 10° ESE
Tiangong 0.1 10:16:27 26° E 10:16:27 26° E 10:18:02 10° E
Cosmos 540 Rocket 3.8 10:25:56 47° NNW 10:25:56 47° NNW 10:29:54 10° NNE
Cosmos 1346 Rocket 4.2 10:21:40 10° SSE 10:25:03 35° E 10:28:27 10° NNE
USA 59 Rocket 1.7 10:24:05 19° NNE 10:25:23 23° NE 10:29:00 10° ESE
COSMO-SKYMED 1 3.6 10:25:56 10° SE 10:29:47 41° ENE 10:33:22 12° N
Timation 1 Rocket 4.2 10:25:41 17° SSW 10:30:24 77° WNW 10:36:23 10° NNE
Cosmos 2142 Rocket 4.4 10:25:38 10° N 10:31:58 88° W 10:38:10 10° S
Cosmos 1354 Rocket 4.0 10:36:50 51° W 10:37:17 52° WSW 10:42:19 10° S
Cosmos 1544 Rocket 4.2 10:39:22 38° SW 10:39:22 38° SW 10:42:25 10° SSW
Cosmos 841 Rocket 4.1 10:36:36 10° S 10:41:41 58° ESE 10:46:50 10° NNE
COSMOS 2455 3.5 10:38:05 16° NNW 10:42:51 52° NE 10:48:42 10° SE
Cosmos 1697 Rocket 3.4 10:49:33 31° WSW 10:49:33 31° WSW 10:54:15 10° SSW
Cosmos 1484 Rocket 4.1 10:46:23 10° NNE 10:49:33 35° E 10:52:41 10° SSE
IRS-1D 3.3 10:44:51 10° N 10:49:48 67° WNW 10:54:48 10° SSW
NOAA 12 4.0 10:47:07 10° N 10:52:25 74° WNW 10:57:38 10° SSW
Cosmos 1933 3.1 10:54:54 17° N 10:57:44 89° W 11:01:32 10° S
Cosmos 1726 Rocket 4.1 10:53:25 10° N 10:57:47 57° E 11:01:57 10° SSE
Cosmos 220 Rocket 4.2 10:54:09 10° S 10:58:08 65° ESE 11:02:11 10° NNE
Cosmos 2322 Rocket 4.4 10:54:09 10° N 10:58:12 20° NE 11:02:14 10° E
Cosmos 1898 Rocket 3.8 10:53:34 10° NNW 10:58:44 70° ENE 11:03:58 10° SSE
Nadezhda 4 Rocket 3.9 10:55:03 10° SSW 11:01:20 73° W 11:07:39 10° N
COSMOS 2406 3.4 10:57:18 10° SSW 11:02:56 72° ESE 11:08:36 10° NNE
Cosmos 489 Rocket 4.5 10:57:08 10° SSW 11:03:27 90° ESE 11:09:47 10° NNE
Cosmos 1428 Rocket 4.4 10:58:47 10° S 11:04:58 81° W 11:11:15 10° N
Cosmos 468 Rocket 4.4 11:03:41 10° SW 11:08:35 39° WNW 11:13:29 10° N
Delta 2 Rocket 4.1 11:07:57 20° SW 11:09:05 26° S 11:11:40 10° ESE
Cosmos 1892 Rocket 3.7 11:05:52 10° S 11:10:11 75° E 11:14:34 10° NNE
Aureole 1 Rocket 4.3 11:04:50 10° NNW 11:11:47 71° WSW 11:19:13 10° S
CZ-4 R/B 4.1 11:11:16 10° N 11:15:37 40° WNW 11:19:54 10° SW
Cosmos 2195 Rocket 4.4 11:09:29 10° S 11:15:42 84° W 11:22:03 10° N
NOSS 3-1 (C) 4.4 11:09:54 10° NNW 11:17:05 68° NE 11:26:01 10° SE
CZ-3 R/B 4.0 11:08:47 13° W 11:19:04 24° SW 11:25:07 10° S
Cosmos 1536 Rocket 4.5 11:18:10 10° SW 11:21:53 26° WNW 11:25:37 10° NNW
Cosmos 2082 Rocket 2.5 11:17:08 10° SW 11:22:28 43° WNW 11:27:49 10° NNE
SL-16 R/B 3.1 11:17:53 10° NNW 11:23:23 48° ENE 11:28:49 10° SE
Helios 1A Rocket 2.8 11:20:40 10° S 11:23:50 40° W 11:26:06 17° NW
ARIANE 5 R/B 4.5 11:19:28 10° NNE 11:24:11 33° E 11:28:51 10° SSE
BREEZE-M DEB (TANK) 3.0 11:23:11 22° NW 11:24:57 48° NNE 11:31:19 10° E
SL-4 R/B 3.6 11:26:48 12° NNW 11:27:47 14° N 11:29:29 10° NNE
Cosmos 1937 Rocket 3.4 11:22:48 10° NNW 11:27:57 89° WSW 11:33:04 10° SSE
IGS 5A 3.2 11:29:15 10° N 11:33:16 76° WNW 11:37:14 10° SSW
BREEZE-M DEB (TANK) 3.9 11:33:09 14° WNW 11:38:18 41° SW 11:41:26 10° SSE
Cosmos 2058 Rocket 3.2 11:36:16 10° N 11:40:45 82° E 11:45:08 10° S
Cosmos 1627 Rocket 4.4 11:37:08 10° SSW 11:43:10 64° W 11:49:16 10° N
CBERS-1 3.9 11:39:31 10° N 11:44:37 71° WNW 11:49:39 10° SSW
Cosmos 2278 4.2 11:39:35 10° NNW 11:45:12 62° ENE 11:50:47 10° SE
Cosmos 2369 4.2 11:42:50 10° NW 11:48:09 42° WSW 11:53:25 10° S
Thor Agena Rocket 3.6 11:43:55 10° NNE 11:49:01 87° ESE 11:54:03 10° SSW
USA 267 4.0 11:43:14 10° NE 11:49:40 58° SE 11:56:05 10° SSW
Cosmos 1980 Rocket 3.4 11:45:48 11° NW 11:49:45 22° W 11:53:54 10° SSW
Tiangong -1.9 11:48:48 12° W 11:51:46 65° SSW 11:54:59 10° ESE
IRIDIUM 106 4.5 11:48:49 10° S 11:54:01 83° E 11:59:15 10° N
